Home > Weather > Maldonado > Past weeks

Flag for Uruguay Past Weather in Maldonado, Uruguay — Yesterday and Last 2 Weeks

Now
48 °F

Partly sunny.


Feels Like: 41 °F
Forecast: 45 / 51 °F
Wind: 20 mph from Southeast

Location: Capitan Corbeta

Current Time: Jul 24, 2016 at 3:42:15 PM

Latest Report: Jul 24, 2016 at 3:00 PM


Visibility: N/A

Pressure: 30.15 "Hg

Humidity: 76%

Dew Point: 41 °F

Location of MaldonadoLocation

Past Weather in Maldonado — Graph

°F

Maldonado Temperature Yesterday

Maximum temperature yesterday: 57 °F (at 1:00 PM)
Minimum temperature yesterday: 39 °F (at 4:00 AM)
Average temperature yesterday: 49 °F

High & Low Weather Summary for the Past Weeks

 TemperatureHumidityPressure
High66 °F (Jul 12, 7:00 PM)100% (Jul 10, 3:00 AM)30.39 "Hg (Jul 10, 3:00 AM)
Low37 °F (Jul 20, 4:00 AM)43% (Jul 12, 7:00 PM)29.74 "Hg (Jul 11, 5:00 PM)
Average49 °F81%30.07 "Hg
* Reported Jul 9 2:00 PM — Jul 24 2:00 PM, Maldonado, Weather by CustomWeather, © 2016

Note: Actual official high and low records may vary slightly from our data, if they occured in-between our weather recording intervals... More about our weather records

Advertising

Maldonado Weather History for the Previous 24 Hours

Scroll right to see more
 ConditionsComfort  
Time TempWeatherWind HumidityBarometerVisibility
2:00 PM
Sun, Jul 24
50 °FPartly sunny.15 mph71%30.18 "HgN/A
1:00 PM50 °FPartly sunny.9 mph71%30.21 "HgN/A
12:00 PM48 °FLow clouds.7 mph76%30.21 "HgN/A
11:00 AM48 °FLow clouds.6 mph76%30.21 "HgN/A
10:00 AM48 °FOvercast.14 mph76%30.18 "HgN/A
9:00 AM48 °FOvercast.12 mph76%30.18 "HgN/A
8:00 AM48 °FOvercast.9 mph82%30.15 "Hg6 mi
7:00 AM48 °FPartly sunny.12 mph82%30.15 "Hg5 mi
6:00 AM48 °FPassing clouds.12 mph82%30.12 "HgN/A
5:00 AM50 °FPassing clouds.12 mph88%30.09 "HgN/A
4:00 AM55 °FPassing clouds.9 mph88%30.07 "HgN/A
3:00 AM55 °FPassing clouds.12 mph94%30.07 "HgN/A
2:00 AM50 °FClear.6 mph94%30.07 "Hg4 mi
1:00 AM46 °FClear.3 mph87%30.04 "Hg4 mi
11:00 PM
Sat, Jul 23
48 °FClear.3 mph87%30.01 "Hg5 mi
10:00 PM46 °FClear.No wind87%30.01 "Hg10 mi
9:00 PM46 °FClear.6 mph87%29.98 "Hg10 mi
8:00 PM46 °FClear.2 mph82%29.98 "Hg10 mi
7:00 PM50 °FClear.3 mph76%29.95 "Hg10 mi
6:00 PM52 °FClear.3 mph72%29.92 "Hg10 mi
5:00 PM55 °FClear.No wind67%29.92 "Hg10 mi
4:00 PM55 °FSunny.7 mph67%29.92 "Hg10 mi
3:00 PM57 °FSunny.9 mph63%29.92 "Hg10 mi
Weather by CustomWeather, © 2016

See weather overviewHow to use our weather pages